This is the latest recevied weather packets stored in our database for station/object W0VI. If no packets are shown the sender has not sent any weather packets the latest 1 day(s).
| Time | Temp. | Humidity | Pressure | Rain* | Wind** | Luminosity | Snow |
|---|---|---|---|---|---|---|---|
| 1778010140 | 8.89° C | 41% | 1011 hPa | 0 mm | 3.13 m/s, 271° | 377 W/m² | - |
| 1778009836 | 8.89° C | 42% | 1010.9 hPa | 0 mm | 2.24 m/s, 256° | 281 W/m² | - |
| 1778009534 | 8.89° C | 41% | 1011.3 hPa | 0 mm | 4.02 m/s, 298° | 326 W/m² | - |
| 1778009232 | 8.89° C | 41% | 1011.1 hPa | 0 mm | 2.24 m/s, 288° | 325 W/m² | - |
| 1778008929 | 8.89° C | 42% | 1011.1 hPa | 0 mm | 2.68 m/s, 319° | 368 W/m² | - |
| 1778008628 | 8.89° C | 42% | 1010.9 hPa | 0 mm | 4.02 m/s, 269° | 327 W/m² | - |
| 1778008325 | 8.89° C | 42% | 1011.1 hPa | 0 mm | 2.24 m/s, 288° | 311 W/m² | - |
| 1778008022 | 8.89° C | 41% | 1011 hPa | 0 mm | 4.02 m/s, 303° | 289 W/m² | - |
| 1778007721 | 8.89° C | 41% | 1010.9 hPa | 0 mm | 1.79 m/s, 2° | 304 W/m² | - |
| 1778007418 | 8.89° C | 42% | 1010.9 hPa | 0 mm | 4.02 m/s, 292° | 289 W/m² | - |
| 1778007114 | 8.89° C | 42% | 1011.1 hPa | 0 mm | 1.79 m/s, 264° | 291 W/m² | - |
| 1778006811 | 8.89° C | 42% | 1011 hPa | 0 mm | 4.02 m/s, 308° | 249 W/m² | - |
| 1778006508 | 8.89° C | 41% | 1011 hPa | 0 mm | 3.58 m/s, 295° | 367 W/m² | - |
| 1778006205 | 8.33° C | 41% | 1011.2 hPa | 0 mm | 2.24 m/s, 308° | 366 W/m² | - |
| 1778005903 | 8.89° C | 41% | 1010.9 hPa | 0 mm | 1.34 m/s, 318° | 290 W/m² | - |
| 1778005598 | 8.33° C | 41% | 1011 hPa | 0 mm | 5.36 m/s, 262° | 494 W/m² | - |
| 1778005296 | 8.89° C | 41% | 1010.9 hPa | 0 mm | 2.24 m/s, 310° | 338 W/m² | - |
| 1778004992 | 9.44° C | 42% | 1011.1 hPa | 0 mm | 1.79 m/s, 299° | 367 W/m² | - |
| 1778004690 | 8.33° C | 41% | 1011.1 hPa | 0 mm | 3.13 m/s, 332° | 345 W/m² | - |
| 1778004385 | 8.33° C | 43% | 1011 hPa | 0 mm | 3.13 m/s, 234° | 306 W/m² | - |
| 1778004083 | 9.44° C | 41% | 1010.9 hPa | 0 mm | 3.58 m/s, 319° | 375 W/m² | - |
| 1778003779 | 9.44° C | 41% | 1010.9 hPa | 0 mm | 3.58 m/s, 345° | 403 W/m² | - |
| 1778003476 | 8.33° C | 42% | 1011 hPa | 0 mm | 3.58 m/s, 269° | 374 W/m² | - |
| 1778003172 | 8.89° C | 41% | 1011.1 hPa | 0 mm | 3.13 m/s, 327° | 304 W/m² | - |
| 1778002868 | 8.89° C | 41% | 1010.8 hPa | 0 mm | 4.92 m/s, 280° | 351 W/m² | - |
* Rain latest hour (hover to see other rain measurements)
** Current wind speed in m/s (hover to see current wind gust speed)